EW4120 Weather Reports


time (UTC)temp
C
wind
direction
speed
KPH
gust
KPH
rain 1hr
cm
rain 24hr
cm
rain mn
cm
humidity
%
barometer
mb
20260904010517 26 0.0 0.0 0.00 0.15 0.13 87 1018.3
20260904005517 26 0.0 0.0 0.00 0.18 0.13 86 1018.0
20260904004537 27 0.0 0.0 0.00 0.18 0.13 84 1018.0
20260904003517 27 0.0 0.0 0.00 0.20 0.13 83 1017.7
20260904002517 27 0.0 0.0 0.00 0.20 0.13 82 1017.6
20260904001517 28 0.0 0.0 0.00 0.20 0.13 81 1017.6
20260904000617 28 0.0 0.0 0.00 0.23 0.13 78 1017.6
20260903235517 29 0.0 0.0 0.00 0.23 0.13 76 1017.3
20260903234517 30 0.0 0.0 0.00 0.23 0.13 75 1017.5
20260903233537 30 0.0 0.0 0.00 0.23 0.13 72 1017.2
20260903231517 32 0.0 1.6 0.00 0.28 0.13 65 1017.2
20260903230537 33 0.0 0.0 0.00 0.30 0.13 65 1017.3
20260903225537 34 0.0 3.2 0.00 0.30 0.13 61 1017.4
20260903224537 35 0.0 1.6 0.00 0.33 0.13 57 1017.4
20260903223537 35 0.0 0.0 0.00 0.33 0.13 56 1017.3
20260903222516 35 0.0 4.8 0.00 0.33 0.13 55 1017.4
20260903221557 35 0.0 3.2 0.00 0.33 0.13 56 1017.5
20260903220517 35 0.0 3.2 0.00 0.33 0.13 56 1017.5
20260903215516 36 0.0 4.8 0.00 0.33 0.13 52 1017.6
20260903214516 36 0.0 3.2 0.00 0.33 0.13 51 1017.7
20260903213537 37 0.0 1.6 0.03 0.33 0.13 54 1017.7
20260903212637 36 315 1.6 6.4 0.03 0.33 0.13 51 1017.7
20260903211617 36 113 1.6 4.8 0.03 0.33 0.13 51 1017.8
20260903210516 37 315 1.6 4.8 0.03 0.33 0.13 50 1017.8
20260903205536 37 0.0 4.8 0.03 0.33 0.13 51 1017.9
20260903204516 37 293 1.6 4.8 0.05 0.33 0.13 51 1017.9
20260903203516 36 90 1.6 3.2 0.03 0.30 0.10 52 1017.9
20260903202516 36 90 1.6 6.4 0.03 0.30 0.10 51 1018.0
20260903201516 36 113 1.6 3.2 0.03 0.30 0.10 53 1018.1
20260903200616 36 315 3.2 9.7 0.03 0.30 0.10 54 1018.2
20260903195536 36 293 1.6 4.8 0.03 0.30 0.10 55 1018.2
20260903194516 36 315 1.6 4.8 0.00 0.28 0.08 56 1018.5
20260903193616 36 45 1.6 4.8 0.00 0.28 0.08 55 1018.6
20260903192536 35 90 1.6 9.7 0.00 0.30 0.08 58 1018.6
20260903191516 35 270 1.6 8.0 0.00 0.30 0.08 60 1018.6
20260903190516 35 0.0 3.2 0.00 0.30 0.08 60 1018.6
20260903185536 35 90 1.6 8.0 0.00 0.30 0.08 60 1018.8
20260903184516 34 0.0 1.6 0.00 0.33 0.08 55 1018.8
20260903183556 35 23 1.6 8.0 0.00 0.33 0.08 56 1018.9
20260903182616 35 315 1.6 8.0 0.00 0.33 0.08 54 1019.1
20260903181516 35 315 1.6 6.4 0.00 0.33 0.08 56 1019.2
20260903180516 35 293 1.6 4.8 0.00 0.33 0.08 57 1019.3
20260903175516 35 23 1.6 6.4 0.00 0.33 0.08 58 1019.4
20260903174536 35 293 1.6 4.8 0.00 0.33 0.08 58 1019.5
20260903173536 35 315 1.6 3.2 0.00 0.33 0.08 57 1019.6
20260903172536 35 293 1.6 6.4 0.00 0.33 0.08 58 1019.6
20260903171536 34 45 1.6 8.0 0.00 0.33 0.08 59 1019.7
20260903170516 34 0.0 1.6 0.00 0.33 0.08 64 1019.9
20260903165536 33 45 1.6 6.4 0.00 0.33 0.08 60 1020.0
20260903164556 33 23 1.6 4.8 0.00 0.33 0.08 60 1020.0
20260903163516 33 0.0 3.2 0.00 0.33 0.08 61 1020.1
20260903162536 33 45 1.6 8.0 0.00 0.33 0.08 59 1020.2
20260903161516 33 0.0 3.2 0.00 0.33 0.08 59 1020.2
20260903160536 33 45 1.6 9.7 0.00 0.33 0.08 60 1020.4
20260903155536 32 45 1.6 6.4 0.00 0.33 0.08 65 1020.3
20260903154516 32 0.0 4.8 0.00 0.33 0.08 63 1020.4
20260903153516 32 23 1.6 8.0 0.00 0.36 0.08 67 1020.5
20260903152516 32 0.0 1.6 0.00 0.36 0.08 71 1020.6
20260903151536 32 0.0 4.8 0.00 0.36 0.08 69 1020.5
20260903150637 31 0.0 4.8 0.00 0.36 0.08 68 1020.5
20260903145536 31 0.0 1.6 0.00 0.36 0.08 72 1020.5
20260903144616 31 0.0 1.6 0.00 0.36 0.08 76 1020.5
20260903143516 30 0.0 1.6 0.00 0.36 0.08 76 1020.5
20260903142616 30 0.0 1.6 0.00 0.36 0.08 78 1020.5
20260903141516 29 0.0 1.6 0.00 0.36 0.08 82 1020.5
20260903140516 28 0.0 1.6 0.03 0.36 0.08 84 1020.5
20260903135536 27 0.0 1.6 0.03 0.36 0.08 89 1020.4
20260903134556 27 0.0 1.6 0.03 0.36 0.08 91 1020.2
20260903133536 25 0.0 1.6 0.03 0.36 0.08 97 1020.1
20260903132516 25 0.0 0.0 0.03 0.36 0.08 100 1020.2
20260903131515 24 0.0 0.0 0.03 0.36 0.08 100 1020.3
20260903130515 23 0.0 0.0 0.00 0.36 0.05 100 1020.3
20260903125536 23 0.0 0.0 0.00 0.36 0.05 100 1020.2
20260903124616 23 0.0 0.0 0.00 0.36 0.05 100 1020.2
20260903123636 22 0.0 0.0 0.00 0.36 0.05 100 1020.1
20260903122515 22 0.0 0.0 0.00 0.36 0.05 99 1020.1
20260903121515 22 0.0 0.0 0.00 0.36 0.05 99 1020.2
20260903120515 21 0.0 0.0 0.00 0.36 0.05 99 1020.2
20260903115515 21 0.0 0.0 0.00 0.36 0.05 99 1020.2
20260903114515 21 0.0 0.0 0.00 0.36 0.05 99 1020.0
20260903113515 21 0.0 0.0 0.00 0.36 0.05 99 1019.8
20260903112515 21 0.0 0.0 0.00 0.36 0.05 99 1019.9
20260903111616 21 0.0 0.0 0.00 0.36 0.05 99 1019.8
20260903110535 21 0.0 0.0 0.00 0.36 0.05 99 1019.8
20260903104535 21 0.0 0.0 0.00 0.36 0.05 99 1019.8
20260903103535 21 0.0 0.0 0.00 0.36 0.05 98 1019.8
20260903102535 21 0.0 0.0 0.00 0.36 0.05 98 1019.7
20260903101615 21 0.0 0.0 0.00 0.36 0.05 99 1019.6
20260903100515 21 0.0 0.0 0.00 0.36 0.05 99 1019.6
20260903095535 21 0.0 0.0 0.00 0.36 0.05 98 1019.5
20260903094515 21 0.0 0.0 0.03 0.36 0.05 98 1019.6
20260903093535 21 0.0 0.0 0.03 0.36 0.05 98 1019.6
20260903092535 21 0.0 0.0 0.03 0.36 0.05 98 1019.5
20260903091515 21 0.0 0.0 0.03 0.36 0.05 98 1019.4
20260903090535 21 0.0 0.0 0.03 0.36 0.05 98 1019.4
20260903085515 21 0.0 0.0 0.03 0.36 0.05 98 1019.3
20260903084617 21 0.0 0.0 0.00 0.33 0.03 98 1019.3
20260903083557 21 0.0 0.0 0.00 0.33 0.03 98 1019.4
20260903082517 21 0.0 0.0 0.00 0.33 0.03 98 1019.3
20260903081517 21 0.0 0.0 0.00 0.33 0.03 98 1019.2
20260903080517 21 0.0 0.0 0.00 0.33 0.03 98 1019.2
20260903075557 21 0.0 0.0 0.00 0.33 0.03 98 1019.1
20260903074617 22 0.0 0.0 0.00 0.33 0.03 98 1019.2
20260903073537 21 0.0 0.0 0.00 0.33 0.03 98 1019.0
20260903072517 22 0.0 0.0 0.00 0.33 0.03 98 1019.0
20260903071637 22 0.0 0.0 0.00 0.33 0.03 97 1019.1
20260903070517 22 0.0 0.0 0.00 0.33 0.03 98 1019.1
20260903065537 22 0.0 0.0 0.00 0.33 0.03 97 1019.2
20260903064517 22 0.0 0.0 0.00 0.33 0.03 98 1019.2
20260903063557 22 0.0 0.0 0.00 0.33 0.03 97 1019.1
20260903062517 22 0.0 0.0 0.00 0.36 0.03 97 1019.1
20260903061557 22 0.0 0.0 0.00 0.36 0.03 97 1019.0
20260903060517 22 0.0 0.0 0.00 0.36 0.03 97 1019.1
20260903055517 22 0.0 0.0 0.03 0.36 0.03 97 1019.1
20260903054517 22 0.0 0.0 0.03 0.36 0.03 97 1019.3
20260903053617 22 0.0 0.0 0.03 0.36 0.03 97 1019.2
20260903052617 22 0.0 0.0 0.03 0.36 0.03 97 1019.2
20260903051557 22 0.0 0.0 0.03 0.36 0.03 96 1019.2
20260903050537 22 0.0 0.0 0.03 0.36 0.03 96 1019.2
20260903045637 22 0.0 0.0 0.00 0.33 0.00 96 1019.1
20260903044517 22 0.0 0.0 0.00 0.33 0.00 96 1019.1
20260903043537 23 0.0 0.0 0.00 0.33 0.00 96 1019.1
20260903042537 23 0.0 0.0 0.00 0.33 0.00 96 1019.0
20260903041537 23 0.0 0.0 0.00 0.33 0.00 95 1019.2
20260903040537 23 0.0 0.0 0.00 0.33 0.00 95 1019.2
20260903035617 23 0.0 0.0 0.00 0.33 0.33 95 1019.1
20260903034617 23 0.0 0.0 0.03 0.33 0.33 95 1019.2
20260903033537 23 0.0 0.0 0.03 0.33 0.33 94 1019.3
20260903032537 23 0.0 0.0 0.03 0.33 0.33 94 1019.5
20260903031517 23 0.0 0.0 0.03 0.33 0.33 94 1019.4
20260903030517 23 0.0 0.0 0.03 0.33 0.33 93 1019.5
20260903024517 24 0.0 0.0 0.00 0.33 0.30 92 1019.6
20260903023557 24 0.0 0.0 0.00 0.33 0.30 92 1019.6
20260903022617 24 0.0 0.0 0.00 0.33 0.30 91 1019.5
20260903021517 25 0.0 0.0 0.00 0.33 0.30 91 1019.7
20260903020617 25 0.0 0.0 0.00 0.33 0.30 90 1019.6
20260903015517 25 0.0 0.0 0.03 0.33 0.30 90 1019.7
20260903014637 25 0.0 0.0 0.03 0.33 0.30 89 1019.7
20260903013537 25 0.0 0.0 0.05 0.33 0.30 88 1019.8
20260903012537 25 0.0 0.0 0.05 0.33 0.30 87 1019.5
20260903011517 26 0.0 0.0 0.05 0.33 0.30 86 1019.5